Dewpoint
53 54 54 54 54 54 54 54 55 55 55 55 55 55 55 55 56 52 47 45 47 57 64 54 65 60 64 65 66 60 56 53 53 54 56 59 58 62 61 60 60 60 61 62 64
54 53 54 54 54 54 54 54 55 55 55 55 55 55 55 55 52 48 48 56 58 61 65 64 59 57 61 62 63 62 56 53 56 57 56 62 59 59 59 59 60 60 62 62 63
53 53 54 54 54 54 54 54 54 54 55 55 55 55 55 55 48 42 57 57 62 66 59 55 52 45 45 56 60 61 57 58 55 55 54 56 57 60 60 59 60 60 60 61 62
53 53 53 53 53 54 54 54 54 54 54 54 55 55 54 52 24 36 68 61 64 55 40 38 42 38 40 45 53 57 59 58 53 55 54 53 58 60 60 60 61 61 60 61 61
53 54 54 54 54 54 54 54 54 54 54 54 54 54 51 41 33 35 67 60 57 45 37 33 31 37 38 43 48 55 55 56 58 54 52 54 53 59 60 62 60 59 60 60 59
54 55 55 54 55 55 55 54 54 54 54 54 54 54 48 30 30 39 52 55 52 42 35 30 29 32 35 37 49 51 52 53 53 53 52 50 55 59 61 62 59 58 59 58 57
54 55 54 54 54 55 54 54 53 55 57 55 56 52 48 35 41 43 41 50 50 37 32 31 29 30 31 38 38 42 43 44 45 51 51 53 49 55 62 61 59 56 56 55 60
54 54 54 54 54 54 53 53 53 55 55 55 58 52 46 47 48 48 41 37 48 44 31 31 28 30 31 32 27 38 38 38 42 51 50 50 47 60 61 60 59 57 55 55 59
54 53 53 53 53 53 52 53 54 55 57 57 53 49 46 51 42 38 39 36 45 43 37 30 26 26 30 27 24 27 34 39 40 50 51 50 48 61 61 60 59 60 60 60 60
53 53 53 52 52 52 52 53 52 57 55 54 53 42 35 21 20 17 29 40 36 38 32 28 24 23 26 25 28 24 34 36 36 48 51 49 48 60 61 60 59 60 61 61 61
53 52 52 51 51 51 50 21 22 19 24 16 15 28 20 21 20 19 20 37 33 30 27 27 22 20 18 25 26 31 36 37 39 41 49 49 48 59 60 60 60 60 59 60 61
52 52 51 51 50 51 43 22 24 26 19 16 15 15 16 16 15 17 20 35 34 29 28 26 21 21 23 26 25 24 23 29 35 38 48 48 48 57 60 59 60 60 59 60 61
52 51 50 50 50 41 36 28 31 19 16 15 16 16 15 16 16 17 19 28 31 31 28 26 28 24 26 25 24 23 22 23 30 39 42 41 45 48 59 60 60 60 60 60 61
51 50 50 50 34 39 29 30 35 24 14 14 9 10 9 16 15 19 22 20 27 28 29 28 26 26 23 26 26 23 24 24 27 33 33 37 36 46 54 57 58 59 60 60 60
51 50 49 50 38 32 29 36 34 19 4 12 9 11 7 10 9 18 21 24 23 22 25 25 28 26 26 26 28 26 26 26 27 28 37 31 34 42 52 55 57 58 59 60 60
51 50 49 45 43 40 37 33 20 14 9 10 10 8 12 15 15 19 23 33 33 35 24 25 23 28 27 30 29 30 28 29 31 30 28 29 33 34 47 50 55 57 57 59 59
49 48 48 46 30 39 34 22 14 9 12 11 9 7 12 19 18 21 30 35 34 32 32 32 26 26 28 28 31 30 28 26 26 27 26 30 32 32 44 47 50 54 56 57 57
48 48 45 44 43 41 26 19 14 18 12 13 12 7 9 18 18 21 21 27 36 35 34 32 25 24 25 28 28 30 29 28 25 26 28 28 29 32 43 47 49 52 55 55 55
48 41 39 36 35 34 23 18 17 20 17 12 15 9 9 15 18 20 21 21 34 35 32 32 31 33 31 25 31 30 30 30 26 21 23 27 26 30 40 45 48 50 53 53 54
43 39 37 36 33 26 21 23 20 26 23 17 16 14 14 15 16 17 19 27 29 35 35 34 30 33 33 30 28 32 30 27 25 22 18 19 22 28 28 32 47 50 52 53 53
39 34 35 36 31 28 23 23 27 29 28 22 20 18 19 19 21 18 20 27 29 33 35 36 32 31 34 26 22 28 29 30 28 26 25 18 20 23 28 28 40 45 49 53 54
37 29 36 33 28 29 28 29 32 29 29 25 24 23 21 21 24 21 26 28 31 36 33 38 37 33 33 34 35 33 28 24 27 25 19 25 25 21 23 26 36 47 51 54 54
37 35 38 33 27 29 31 31 30 30 30 28 25 23 23 22 22 28 29 32 34 33 35 39 36 28 28 27 28 25 24 26 22 22 20 24 24 18 19 22 25 27 38 50 55
38 31 34 33 33 29 31 31 29 30 30 30 28 26 26 24 28 25 31 32 31 31 40 39 36 32 28 28 30 29 29 28 23 21 18 18 23 18 19 20 22 28 31 44 53
35 31 33 29 31 32 32 31 31 31 33 32 31 31 30 26 25 26 29 29 33 36 38 38 32 33 32 31 29 29 28 27 27 19 18 17 15 17 19 21 28 39 36 32 37
35 35 35 33 34 34 33 31 32 32 33 32 32 32 33 30 26 23 24 25 28 35 35 37 31 32 29 28 27 26 27 27 28 29 16 16 16 19 42 51 53 51 40 32 40
40 40 40 38 36 36 35 36 36 38 37 36 35 34 32 32 31 28 27 27 29 32 34 35 32 30 26 26 27 27 32 33 31 33 34 19 30 43 51 52 52 54 52 40 46
Lifted_Index
17 17 17 17 17 17 17 17 17 17 17 16 16 16 16 16 14 12 12 13 12 8 6 5 3 2 0 -1 -2 -2 -1 0 0 -1 -2 -2 -2 -2 -1 -1 -2 -2 -2 -1 -0
17 17 17 17 17 17 17 17 17 17 16 16 16 16 16 15 13 11 11 12 11 7 4 4 4 2 1 -1 -2 -2 -1 0 -0 -1 -1 -2 -2 -2 -1 -1 -2 -2 -2 -1 -1
17 17 17 17 17 17 17 17 17 17 17 16 16 16 16 14 11 10 10 11 9 7 5 6 6 4 2 0 -1 -2 -1 -1 -0 -0 -1 -1 -2 -2 -2 -1 -1 -2 -2 -1 -1
17 17 17 17 17 17 17 17 17 17 17 16 16 16 15 13 10 9 9 9 9 8 9 9 8 6 4 2 -0 -1 -1 -1 -1 -0 -0 -1 -2 -2 -2 -2 -2 -1 -1 -1 -1
17 17 17 17 17 17 17 17 17 17 17 16 16 16 14 12 11 10 8 8 9 11 11 10 9 8 6 3 1 -1 -1 -1 -1 -0 -0 -1 -1 -2 -2 -2 -1 -1 -1 -1 -1
16 16 16 16 16 16 16 17 17 16 16 15 15 15 13 11 12 11 9 9 10 11 12 11 10 10 8 5 2 -0 -1 -1 -1 -1 -0 -1 -1 -2 -2 -2 -1 -1 -1 -1 -1
16 16 16 16 16 16 17 17 16 15 14 14 14 14 12 12 13 12 10 10 10 11 12 12 12 10 9 6 3 0 -0 -0 -0 -0 -0 -0 -1 -2 -2 -2 -1 -1 -1 -1 -1
16 16 17 17 17 17 17 17 16 14 13 13 13 12 11 12 13 12 11 10 10 11 12 13 13 11 9 7 4 2 1 1 0 0 0 0 -0 -2 -3 -2 -2 -1 -1 -1 -1
17 17 17 17 17 17 17 17 16 14 13 13 13 12 12 12 12 11 11 10 10 11 12 13 13 11 9 7 5 3 2 1 1 0 1 0 -1 -2 -3 -2 -2 -2 -2 -1 -1
17 17 17 17 17 18 18 17 15 13 13 13 12 12 13 13 12 11 11 10 9 10 11 12 11 10 8 7 6 4 3 2 1 0 0 0 -1 -2 -3 -2 -2 -2 -2 -2 -2
17 17 17 18 18 18 18 17 15 13 13 13 13 13 14 14 13 11 10 10 9 9 10 10 9 7 7 7 6 5 3 2 0 -0 -0 -0 -1 -2 -3 -3 -3 -3 -3 -3 -3
17 17 17 17 18 18 18 17 16 15 13 13 14 14 15 14 13 11 10 9 9 9 9 9 7 6 7 7 6 5 3 1 0 -0 -0 -1 -1 -2 -3 -3 -3 -3 -3 -3 -3
17 17 17 16 16 16 16 16 15 14 12 12 13 14 14 14 12 11 11 10 9 9 9 8 7 7 7 7 6 5 3 2 0 -1 -1 -1 -1 -1 -2 -3 -3 -3 -3 -3 -3
16 16 15 14 14 13 13 12 12 10 9 9 11 12 13 13 12 11 11 10 9 8 9 8 8 8 7 6 6 5 4 2 -0 -1 -1 -1 -0 -1 -1 -2 -3 -3 -3 -4 -4
15 14 13 12 11 11 10 9 8 6 5 6 9 10 10 10 10 10 10 9 8 8 9 8 8 8 7 6 6 5 4 2 -0 -1 -1 -1 0 0 -0 -1 -2 -3 -3 -4 -4
14 12 10 10 9 9 8 7 6 4 3 5 7 8 8 8 8 8 8 8 8 7 8 8 8 8 7 6 6 5 4 2 -0 -1 -1 -0 0 1 1 0 -1 -3 -3 -4 -4
13 10 9 8 8 8 7 6 4 3 4 5 6 6 6 6 6 6 6 6 6 6 6 7 8 8 7 6 5 5 4 3 0 -0 0 0 1 2 2 1 -0 -2 -3 -4 -4
12 10 8 7 7 7 7 6 4 4 5 6 6 6 5 6 6 5 6 5 5 5 5 6 7 7 7 6 5 4 4 3 1 1 1 1 2 2 3 2 0 -1 -2 -3 -3
11 9 7 7 7 7 6 5 5 6 6 6 6 5 5 5 5 5 5 5 5 4 4 5 6 7 7 6 4 4 4 3 3 2 2 2 3 3 3 2 0 -1 -2 -2 -3
10 8 7 7 7 7 6 6 6 6 6 6 5 5 5 5 5 5 5 5 5 5 4 5 5 5 5 5 3 3 3 3 3 2 2 2 3 3 3 2 1 1 -0 -2 -2
9 8 7 7 7 6 6 6 6 6 6 5 5 5 5 5 5 5 5 5 5 5 5 4 4 4 4 4 3 3 3 3 3 3 2 2 4 4 3 2 2 2 0 -1 -2
9 8 8 7 6 6 5 5 5 5 5 4 4 4 4 4 4 4 4 4 4 5 5 5 4 3 3 3 3 2 2 3 3 3 4 3 4 5 4 2 2 2 1 -1 -1
9 8 8 8 6 5 5 5 5 5 4 4 3 3 3 2 2 2 2 3 4 4 5 5 4 3 2 2 2 2 2 3 3 3 4 4 4 5 4 3 2 1 1 -0 -1
9 8 8 7 7 6 5 4 4 4 3 3 3 2 2 1 1 1 1 2 3 4 5 5 4 3 2 2 2 2 2 3 3 3 4 4 5 4 4 3 2 1 1 0 -0
8 8 7 7 6 6 5 4 4 3 3 2 2 2 1 1 1 1 1 2 3 4 5 5 5 4 3 2 2 2 2 2 2 3 3 5 5 4 3 2 2 1 1 1 1
8 8 7 6 6 6 5 4 3 3 2 2 2 1 1 1 1 1 1 1 2 4 5 6 5 4 3 2 2 2 2 2 2 2 3 4 4 3 2 1 1 1 1 1 1
9 8 7 7 6 6 5 4 3 3 2 2 1 1 0 1 1 1 1 1 2 4 6 6 5 4 3 2 2 2 2 2 2 2 2 3 4 3 1 1 1 1 2 1 1